Voltar ao catálogo

FENGYUN 1C DEB

AtivoPO
NORAD 30945·DEBRIS·🇨🇳 China

Lançado May 10, 1999 de Taiyuan Satellite Launch Center

Loading…

Próximas Passagens (próximas 24 horas)

TLE

AtualizadoSource: Space-Track

Época: Sep 12, 2026, 01:38 UTC

1 30945U 99025BAK 26255.06839056  .00001957  00000-0  75010-3 0  9991
2 30945  99.3797 290.3125 0028356 334.2117  81.1611 14.31633723  3233

Acompanhe FENGYUN 1C DEB em tempo real com AllMySat

Download on the App Store